This demonstration page uses our WeatherBlox Daily Observations layout. Learn more.

38.89511, -77.03637

Hourly Observations for March 15, 2015

Temp ( °F °C ) Dew Point ( °F °C ) Humidity (%) Winds ( mph kmh ) Pressure ( in mb ) Visibility ( mi km ) Precip ( " mm )
12:52 am 00:52 Partly Cloudy 57 13.9 46 7.8 67 67 NNW 9 15 29.86 1011 10 16.0934 0 0
1:52 am 01:52 Mostly Clear 53 11.7 40 4.4 61 61 NW 10 17 29.89 1012 10 16.0934 0 0
2:52 am 02:52 Mostly Clear 51 10.6 39 3.9 64 64 NNW 12 19 29.89 1012 10 16.0934 0 0
3:52 am 03:52 Mostly Clear 49 9.4 38 3.3 66 66 NNW 8 13 29.88 1012 10 16.0934 0 0
4:52 am 04:52 Mostly Clear 49 9.4 37 2.8 64 64 VRB 5 7 29.88 1012 10 16.0934 0 0
5:52 am 05:52 Mostly Cloudy 48 8.9 37 2.8 66 66 Calm 29.89 1012 10 16.0934 0 0
6:52 am 06:52 Partly Cloudy 45 7.2 38 3.3 77 77 Calm 29.9 1013 10 16.0934 0 0
7:52 am 07:52 Cloudy 51 10.6 37 2.8 59 59 WNW 9 15 29.92 1013 10 16.0934 0 0
8:52 am 08:52 Mostly Cloudy 51 10.6 33 0.6 50 50 WNW 14 22 29.95 1014 10 16.0934 0 0
9:52 am 09:52 Mostly Cloudy 50 10 33 0.6 52 52 NW 13 20 29.97 1015 10 16.0934 0 0
10:52 am 10:52 Mostly Cloudy 51 10.6 32 0 48 48 WNW 16 26 29.99 1016 10 16.0934 0 0
11:52 am 11:52 Mostly Cloudy 52 11.1 32 0 47 47 NW 21 33 29.98 1015 10 16.0934 0 0
12:52 pm 12:52 Mostly Cloudy 54 12.2 32 0 43 43 NW 25 41 30 1016 10 16.0934 0 0
1:52 pm 13:52 Partly Cloudy 57 13.9 33 0.6 41 41 NW 23 37 29.98 1015 10 16.0934 0 0
2:52 pm 14:52 Partly Cloudy 57 13.9 33 0.6 41 41 NW 22 35 29.96 1015 10 16.0934 0 0
3:52 pm 15:52 Mostly Sunny 57 13.9 32 0 39 39 NW 17 28 29.97 1015 10 16.0934 0 0
4:52 pm 16:52 Mostly Sunny 57 13.9 32 0 39 39 NNW 22 35 29.97 1015 10 16.0934 0 0
5:52 pm 17:52 Partly Cloudy 56 13.3 30 -1.1 37 37 NNW 18 30 29.99 1016 10 16.0934 0 0
6:52 pm 18:52 Partly Cloudy 52 11.1 30 -1.1 43 43 NNW 13 20 30.03 1017 10 16.0934 0 0
7:52 pm 19:52 Mostly Clear 50 10 29 -1.7 44 44 NNW 13 20 30.06 1018 10 16.0934 0 0
8:52 pm 20:52 Clear 49 9.4 29 -1.7 46 46 N 12 19 30.09 1019 10 16.0934 0 0
9:52 pm 21:52 Clear 48 8.9 30 -1.1 50 50 N 10 17 30.11 1020 10 16.0934 0 0
10:52 pm 22:52 Clear 47 8.3 30 -1.1 52 52 NNW 12 19 30.11 1020 10 16.0934 0 0
11:52 pm 23:52 Mostly Clear 45 7.2 30 -1.1 56 56 N 7 11 30.11 1020 10 16.0934 0 0

Powered by AerisWeather